| time (UTC) | temp F | wind direction | speed MPH | gust MPH | rain 1hr in | rain 24hr in | rain mn in | humidity % | barometer mb |
| 20260505101902 | 57 | 140 | 3.0 | 10.0 | 0.00 | 0.01 | 0.00 | 73 | 1010.3 |
| 20260505101402 | 57 | 159 | 3.0 | 8.0 | 0.00 | 0.01 | 0.00 | 73 | 1010.4 |
| 20260505100902 | 57 | 82 | 2.0 | 7.0 | 0.00 | 0.01 | 0.00 | 73 | 1010.5 |
| 20260505100402 | 57 | 199 | 1.0 | 7.0 | 0.00 | 0.01 | 0.00 | 73 | 1010.3 |
| 20260505095904 | 57 | 171 | 1.0 | 7.0 | 0.00 | 0.01 | 0.00 | 73 | 1010.3 |
| 20260505095402 | 57 | 134 | 1.0 | 4.0 | 0.00 | 0.01 | 0.00 | 73 | 1010.3 |
| 20260505094902 | 57 | 174 | 1.0 | 6.0 | 0.00 | 0.01 | 0.00 | 73 | 1010.3 |
| 20260505094404 | 57 | 136 | 2.0 | 5.0 | 0.00 | 0.01 | 0.00 | 73 | 1010.4 |
| 20260505093902 | 57 | 219 | 1.0 | 7.0 | 0.00 | 0.01 | 0.00 | 73 | 1010.4 |
| 20260505093402 | 57 | 185 | 1.0 | 6.0 | 0.00 | 0.01 | 0.00 | 73 | 1010.3 |
| 20260505092907 | 57 | 161 | 1.0 | 4.0 | 0.00 | 0.01 | 0.00 | 72 | 1010.4 |
| 20260505092402 | 57 | 164 | 2.0 | 4.0 | 0.00 | 0.01 | 0.00 | 72 | 1010.4 |
| 20260505091902 | 57 | 154 | 2.0 | 5.0 | 0.00 | 0.01 | 0.00 | 72 | 1010.3 |
| 20260505091403 | 57 | 134 | 2.0 | 5.0 | 0.00 | 0.01 | 0.00 | 72 | 1010.3 |
| 20260505090956 | 57 | 148 | 2.0 | 7.0 | 0.00 | 0.01 | 0.00 | 72 | 1010.2 |
| 20260505090902 | 57 | 148 | 2.0 | 7.0 | 0.00 | 0.01 | 0.00 | 72 | 1010.2 |
| 20260505090403 | 57 | 148 | 2.0 | 5.0 | 0.00 | 0.01 | 0.00 | 73 | 1010.2 |
| 20260505085904 | 57 | 134 | 1.0 | 5.0 | 0.00 | 0.01 | 0.00 | 73 | 1010.0 |
| 20260505085403 | 56 | 102 | 1.0 | 2.0 | 0.00 | 0.01 | 0.00 | 73 | 1010.1 |
| 20260505084902 | 56 | 105 | 0.0 | 5.0 | 0.00 | 0.01 | 0.00 | 73 | 1010.0 |
| 20260505084402 | 56 | 117 | 0.0 | 1.0 | 0.00 | 0.01 | 0.00 | 73 | 1010.0 |
| 20260505084057 | 56 | 240 | 0.0 | 2.0 | 0.00 | 0.01 | 0.00 | 73 | 1009.9 |
| 20260505083902 | 56 | 240 | 0.0 | 2.0 | 0.00 | 0.01 | 0.00 | 73 | 1009.9 |
| 20260505083405 | 56 | 117 | 0.0 | 1.0 | 0.00 | 0.01 | 0.00 | 73 | 1010.0 |
| 20260505082906 | 56 | 52 | 0.0 | 0.0 | 0.00 | 0.01 | 0.00 | 73 | 1010.0 |
| 20260505082402 | 56 | 52 | 0.0 | 0.0 | 0.00 | 0.01 | 0.00 | 73 | 1010.1 |
| 20260505081902 | 56 | 154 | 0.0 | 2.0 | 0.00 | 0.01 | 0.00 | 73 | 1010.1 |
| 20260505081403 | 56 | 173 | 0.0 | 0.0 | 0.00 | 0.01 | 0.00 | 73 | 1010.1 |
| 20260505080902 | 57 | 169 | 0.0 | 2.0 | 0.00 | 0.01 | 0.00 | 72 | 1010.2 |
| 20260505080402 | 57 | 157 | 0.0 | 1.0 | 0.00 | 0.01 | 0.00 | 72 | 1010.2 |
| 20260505075907 | 57 | 111 | 0.0 | 3.0 | 0.00 | 0.01 | 0.00 | 72 | 1010.1 |
| 20260505075402 | 57 | 113 | 1.0 | 3.0 | 0.00 | 0.01 | 0.00 | 72 | 1010.1 |
| 20260505074902 | 57 | 91 | 1.0 | 3.0 | 0.00 | 0.01 | 0.00 | 71 | 1010.0 |
| 20260505074402 | 57 | 163 | 1.0 | 7.0 | 0.00 | 0.01 | 0.00 | 71 | 1010.1 |
| 20260505074133 | 58 | 118 | 1.0 | 4.0 | 0.00 | 0.01 | 0.00 | 71 | 1010.0 |
| 20260505073902 | 58 | 118 | 1.0 | 4.0 | 0.00 | 0.01 | 0.00 | 71 | 1010.0 |
| 20260505073403 | 58 | 108 | 1.0 | 3.0 | 0.00 | 0.01 | 0.00 | 70 | 1010.0 |
| 20260505072902 | 58 | 98 | 1.0 | 3.0 | 0.00 | 0.01 | 0.00 | 70 | 1009.9 |
| 20260505072405 | 58 | 104 | 1.0 | 2.0 | 0.00 | 0.01 | 0.00 | 70 | 1009.9 |
| 20260505071902 | 58 | 111 | 0.0 | 3.0 | 0.00 | 0.01 | 0.00 | 70 | 1009.8 |
| 20260505071721 | 58 | 126 | 0.0 | 2.0 | 0.00 | 0.01 | 0.00 | 70 | 1009.8 |
| 20260505071403 | 58 | 126 | 0.0 | 2.0 | 0.00 | 0.01 | 0.00 | 70 | 1009.8 |
| 20260505070903 | 58 | 101 | 0.0 | 2.0 | 0.00 | 0.01 | 0.00 | 70 | 1009.8 |
| 20260505070403 | 58 | 69 | 0.0 | 4.0 | 0.00 | 0.01 | 0.00 | 70 | 1009.8 |
| 20260505065905 | 58 | 92 | 0.0 | 2.0 | 0.00 | 0.01 | 0.00 | 70 | 1009.8 |
| 20260505065809 | 59 | 274 | 0.0 | 0.0 | 0.00 | 0.01 | 0.00 | 69 | 1009.9 |
| 20260505065403 | 59 | 274 | 0.0 | 0.0 | 0.00 | 0.01 | 0.00 | 69 | 1009.9 |
| 20260505064902 | 59 | 245 | 0.0 | 2.0 | 0.00 | 0.01 | 0.00 | 68 | 1009.9 |
| 20260505064403 | 59 | 91 | 0.0 | 2.0 | 0.00 | 0.01 | 0.00 | 68 | 1010.0 |
| 20260505064049 | 59 | 101 | 0.0 | 4.0 | 0.00 | 0.01 | 0.00 | 69 | 1010.0 |
| 20260505063903 | 59 | 101 | 0.0 | 4.0 | 0.00 | 0.01 | 0.00 | 69 | 1010.0 |
| 20260505063403 | 59 | 144 | 1.0 | 1.0 | 0.00 | 0.01 | 0.00 | 69 | 1010.0 |
| 20260505062905 | 59 | 160 | 1.0 | 3.0 | 0.00 | 0.01 | 0.00 | 69 | 1010.0 |
| 20260505062403 | 59 | 129 | 0.0 | 3.0 | 0.00 | 0.01 | 0.00 | 68 | 1010.0 |
| 20260505061903 | 59 | 159 | 0.0 | 2.0 | 0.00 | 0.01 | 0.00 | 67 | 1010.1 |
| 20260505061403 | 59 | 123 | 0.0 | 1.0 | 0.00 | 0.01 | 0.00 | 67 | 1010.0 |
| 20260505060903 | 60 | 162 | 0.0 | 2.0 | 0.00 | 0.01 | 0.00 | 66 | 1010.1 |
| 20260505060403 | 60 | 159 | 0.0 | 2.0 | 0.00 | 0.01 | 0.00 | 66 | 1010.1 |
| 20260505055906 | 60 | 180 | 0.0 | 1.0 | 0.00 | 0.01 | 0.00 | 66 | 1010.2 |
| 20260505055403 | 60 | 144 | 0.0 | 1.0 | 0.00 | 0.01 | 0.00 | 65 | 1010.3 |
| 20260505054903 | 61 | 114 | 1.0 | 3.0 | 0.00 | 0.01 | 0.00 | 65 | 1010.2 |
| 20260505054404 | 61 | 172 | 1.0 | 2.0 | 0.00 | 0.01 | 0.00 | 65 | 1010.2 |
| 20260505053904 | 61 | 137 | 1.0 | 5.0 | 0.00 | 0.01 | 0.00 | 65 | 1010.2 |
| 20260505053405 | 61 | 98 | 0.0 | 2.0 | 0.00 | 0.01 | 0.00 | 65 | 1010.1 |
| 20260505052903 | 61 | 190 | 0.0 | 1.0 | 0.00 | 0.01 | 0.00 | 64 | 1010.1 |
| 20260505052403 | 61 | 282 | 0.0 | 1.0 | 0.00 | 0.01 | 0.00 | 64 | 1010.2 |
| 20260505051903 | 62 | 298 | 0.0 | 2.0 | 0.00 | 0.01 | 0.00 | 63 | 1010.1 |
| 20260505051404 | 62 | 148 | 1.0 | 3.0 | 0.00 | 0.01 | 0.00 | 62 | 1010.2 |
| 20260505050903 | 62 | 144 | 1.0 | 3.0 | 0.00 | 0.01 | 0.00 | 62 | 1010.2 |
| 20260505050404 | 62 | 224 | 1.0 | 4.0 | 0.00 | 0.01 | 0.00 | 62 | 1010.3 |
| 20260505041403 | 63 | 150 | 2.0 | 8.0 | 0.00 | 0.01 | 0.00 | 60 | 1009.9 |
| 20260505040903 | 64 | 173 | 2.0 | 8.0 | 0.00 | 0.01 | 0.00 | 59 | 1009.9 |
| 20260505040403 | 64 | 123 | 2.0 | 5.0 | 0.00 | 0.01 | 0.00 | 59 | 1009.9 |
| 20260505035905 | 64 | 128 | 2.0 | 4.0 | 0.00 | 0.01 | 0.01 | 59 | 1009.9 |
| 20260505035403 | 64 | 174 | 2.0 | 5.0 | 0.00 | 0.01 | 0.01 | 59 | 1009.9 |
| 20260505034903 | 64 | 221 | 3.0 | 7.0 | 0.00 | 0.01 | 0.01 | 58 | 1009.9 |
| 20260505034403 | 64 | 189 | 3.0 | 7.0 | 0.00 | 0.01 | 0.01 | 58 | 1009.8 |
| 20260505033903 | 64 | 161 | 2.0 | 9.0 | 0.00 | 0.01 | 0.01 | 58 | 1009.8 |
| 20260505033403 | 64 | 212 | 2.0 | 6.0 | 0.00 | 0.01 | 0.01 | 58 | 1009.8 |
| 20260505032903 | 64 | 171 | 2.0 | 3.0 | 0.00 | 0.01 | 0.01 | 59 | 1009.8 |
| 20260505032403 | 64 | 153 | 3.0 | 8.0 | 0.00 | 0.01 | 0.01 | 57 | 1009.8 |
| 20260505031903 | 64 | 215 | 3.0 | 10.0 | 0.00 | 0.01 | 0.01 | 58 | 1009.8 |
| 20260505031404 | 64 | 187 | 3.0 | 9.0 | 0.00 | 0.01 | 0.01 | 58 | 1009.7 |
| 20260505030903 | 64 | 219 | 3.0 | 8.0 | 0.00 | 0.01 | 0.01 | 59 | 1009.8 |
| 20260505030404 | 64 | 140 | 3.0 | 6.0 | 0.00 | 0.01 | 0.01 | 59 | 1009.7 |
| 20260505025907 | 63 | 250 | 3.0 | 12.0 | 0.00 | 0.01 | 0.01 | 58 | 1009.8 |
| 20260505025403 | 63 | 178 | 3.0 | 6.0 | 0.00 | 0.01 | 0.01 | 59 | 1009.8 |
| 20260505024905 | 63 | 214 | 2.0 | 9.0 | 0.00 | 0.01 | 0.01 | 59 | 1009.8 |
| 20260505024403 | 63 | 221 | 2.0 | 8.0 | 0.00 | 0.01 | 0.01 | 59 | 1009.8 |
| 20260505023903 | 63 | 146 | 2.0 | 8.0 | 0.00 | 0.01 | 0.01 | 59 | 1009.6 |
| 20260505023403 | 63 | 186 | 1.0 | 5.0 | 0.00 | 0.01 | 0.01 | 58 | 1009.7 |
| 20260505022905 | 63 | 164 | 1.0 | 5.0 | 0.00 | 0.01 | 0.01 | 58 | 1009.7 |
| 20260505022442 | 63 | 184 | 2.0 | 3.0 | 0.00 | 0.01 | 0.01 | 58 | 1009.7 |
| 20260505022403 | 63 | 184 | 2.0 | 3.0 | 0.00 | 0.01 | 0.01 | 58 | 1009.7 |
| 20260505021904 | 63 | 183 | 2.0 | 6.0 | 0.01 | 0.01 | 0.01 | 58 | 1009.7 |
| 20260505021403 | 63 | 226 | 2.0 | 4.0 | 0.01 | 0.01 | 0.01 | 58 | 1009.9 |
| 20260505020904 | 63 | 248 | 1.0 | 4.0 | 0.01 | 0.01 | 0.01 | 58 | 1009.8 |
| 20260505020508 | 63 | 221 | 1.0 | 3.0 | 0.01 | 0.01 | 0.01 | 59 | 1009.9 |
| 20260505020403 | 63 | 221 | 1.0 | 3.0 | 0.01 | 0.01 | 0.01 | 59 | 1009.9 |
| 20260505015905 | 64 | 265 | 1.0 | 3.0 | 0.01 | 0.01 | 0.01 | 57 | 1009.8 |
| 20260505015403 | 64 | 178 | 1.0 | 5.0 | 0.01 | 0.01 | 0.01 | 58 | 1009.7 |
| 20260505014903 | 64 | 163 | 2.0 | 4.0 | 0.01 | 0.01 | 0.01 | 60 | 1009.6 |
| 20260505014403 | 64 | 221 | 2.0 | 8.0 | 0.01 | 0.01 | 0.01 | 58 | 1009.6 |
| 20260505013903 | 64 | 22 | 2.0 | 6.0 | 0.01 | 0.01 | 0.01 | 60 | 1009.6 |
| 20260505013405 | 64 | 228 | 4.0 | 7.0 | 0.01 | 0.01 | 0.01 | 60 | 1009.7 |
| 20260505012905 | 65 | 178 | 6.0 | 12.0 | 0.01 | 0.01 | 0.01 | 57 | 1009.7 |
| 20260505012403 | 65 | 225 | 5.0 | 14.0 | 0.01 | 0.01 | 0.01 | 56 | 1009.5 |
| 20260505011904 | 66 | 153 | 3.0 | 5.0 | 0.00 | 0.00 | 0.00 | 49 | 1009.4 |
| 20260505011403 | 67 | 223 | 3.0 | 5.0 | 0.00 | 0.00 | 0.00 | 47 | 1009.7 |
| 20260505010904 | 67 | 172 | 2.0 | 7.0 | 0.00 | 0.00 | 0.00 | 47 | 1009.5 |
| 20260505010403 | 67 | 183 | 2.0 | 4.0 | 0.00 | 0.00 | 0.00 | 46 | 1009.2 |
| 20260505005904 | 68 | 159 | 3.0 | 9.0 | 0.00 | 0.00 | 0.00 | 46 | 1009.1 |
| 20260505005403 | 68 | 165 | 3.0 | 5.0 | 0.00 | 0.00 | 0.00 | 45 | 1009.2 |
| 20260505004903 | 68 | 152 | 4.0 | 7.0 | 0.00 | 0.00 | 0.00 | 45 | 1009.0 |
| 20260505004403 | 68 | 154 | 4.0 | 9.0 | 0.00 | 0.00 | 0.00 | 45 | 1009.0 |
| 20260505003903 | 68 | 152 | 3.0 | 8.0 | 0.00 | 0.00 | 0.00 | 45 | 1008.9 |
| 20260505003436 | 68 | 140 | 3.0 | 8.0 | 0.00 | 0.00 | 0.00 | 44 | 1008.9 |
| 20260505003403 | 68 | 140 | 3.0 | 8.0 | 0.00 | 0.00 | 0.00 | 44 | 1008.9 |
| 20260505002907 | 69 | 188 | 3.0 | 7.0 | 0.00 | 0.00 | 0.00 | 44 | 1008.9 |
| 20260505002403 | 69 | 165 | 4.0 | 10.0 | 0.00 | 0.00 | 0.00 | 43 | 1008.8 |
| 20260505001903 | 69 | 165 | 4.0 | 9.0 | 0.00 | 0.00 | 0.00 | 43 | 1008.8 |
| 20260505001403 | 69 | 209 | 4.0 | 11.0 | 0.00 | 0.00 | 0.00 | 43 | 1008.9 |
| 20260505000903 | 70 | 188 | 4.0 | 12.0 | 0.00 | 0.00 | 0.00 | 42 | 1008.9 |
| 20260505000405 | 70 | 180 | 4.0 | 9.0 | 0.00 | 0.00 | 0.00 | 42 | 1009.0 |
| 20260504235903 | 70 | 161 | 4.0 | 9.0 | 0.00 | 0.00 | 0.00 | 41 | 1009.0 |
| 20260504235404 | 70 | 219 | 4.0 | 9.0 | 0.00 | 0.00 | 0.00 | 41 | 1008.9 |
| 20260504234903 | 71 | 182 | 4.0 | 12.0 | 0.00 | 0.00 | 0.00 | 40 | 1008.8 |
| 20260504234404 | 71 | 193 | 3.0 | 9.0 | 0.00 | 0.00 | 0.00 | 40 | 1008.8 |
| 20260504233904 | 72 | 158 | 3.0 | 8.0 | 0.00 | 0.00 | 0.00 | 40 | 1008.8 |
| 20260504233404 | 72 | 158 | 4.0 | 10.0 | 0.00 | 0.00 | 0.00 | 39 | 1008.8 |
| 20260504232904 | 73 | 182 | 4.0 | 9.0 | 0.00 | 0.00 | 0.00 | 38 | 1008.7 |
| 20260504232404 | 73 | 207 | 4.0 | 7.0 | 0.00 | 0.00 | 0.00 | 38 | 1008.7 |
| 20260504231904 | 73 | 262 | 4.0 | 13.0 | 0.00 | 0.00 | 0.00 | 38 | 1008.6 |
| 20260504231404 | 73 | 177 | 4.0 | 9.0 | 0.00 | 0.00 | 0.00 | 38 | 1008.6 |
| 20260504230904 | 73 | 165 | 5.0 | 9.0 | 0.00 | 0.00 | 0.00 | 39 | 1008.6 |
| 20260504230404 | 73 | 155 | 5.0 | 10.0 | 0.00 | 0.00 | 0.00 | 38 | 1008.5 |
| 20260504225904 | 73 | 189 | 4.0 | 11.0 | 0.00 | 0.00 | 0.00 | 38 | 1008.7 |
| 20260504225404 | 73 | 123 | 4.0 | 10.0 | 0.00 | 0.00 | 0.00 | 39 | 1008.7 |
| 20260504224904 | 73 | 177 | 5.0 | 8.0 | 0.00 | 0.00 | 0.00 | 38 | 1008.8 |
| 20260504224404 | 73 | 152 | 5.0 | 15.0 | 0.00 | 0.00 | 0.00 | 38 | 1008.8 |
| 20260504223904 | 74 | 212 | 4.0 | 9.0 | 0.00 | 0.00 | 0.00 | 39 | 1008.8 |
| 20260504223404 | 74 | 135 | 5.0 | 11.0 | 0.00 | 0.00 | 0.00 | 38 | 1008.8 |
| 20260504222904 | 74 | 169 | 4.0 | 11.0 | 0.00 | 0.00 | 0.00 | 39 | 1008.9 |
| 20260504222404 | 74 | 148 | 3.0 | 7.0 | 0.00 | 0.00 | 0.00 | 38 | 1008.8 |
| 20260504221904 | 73 | 191 | 4.0 | 8.0 | 0.00 | 0.00 | 0.00 | 37 | 1008.8 |
| 20260504221404 | 73 | 194 | 6.0 | 11.0 | 0.00 | 0.00 | 0.00 | 38 | 1008.8 |
| 20260504220904 | 73 | 191 | 6.0 | 12.0 | 0.00 | 0.00 | 0.00 | 38 | 1008.9 |
| 20260504220404 | 74 | 154 | 6.0 | 11.0 | 0.00 | 0.00 | 0.00 | 37 | 1008.9 |
| 20260504215905 | 73 | 168 | 6.0 | 13.0 | 0.00 | 0.00 | 0.00 | 37 | 1008.9 |
| 20260504215404 | 73 | 167 | 5.0 | 10.0 | 0.00 | 0.00 | 0.00 | 38 | 1009.0 |
| 20260504214904 | 72 | 188 | 5.0 | 12.0 | 0.00 | 0.00 | 0.00 | 39 | 1009.0 |
| 20260504214404 | 72 | 170 | 5.0 | 13.0 | 0.00 | 0.00 | 0.00 | 39 | 1009.0 |
| 20260504213904 | 73 | 174 | 5.0 | 12.0 | 0.00 | 0.00 | 0.00 | 38 | 1008.9 |
| 20260504213404 | 72 | 157 | 4.0 | 13.0 | 0.00 | 0.00 | 0.00 | 39 | 1008.9 |
| 20260504212904 | 72 | 190 | 4.0 | 9.0 | 0.00 | 0.00 | 0.00 | 40 | 1008.9 |
| 20260504212404 | 72 | 148 | 6.0 | 10.0 | 0.00 | 0.00 | 0.00 | 39 | 1009.0 |
| 20260504211904 | 72 | 143 | 7.0 | 14.0 | 0.00 | 0.00 | 0.00 | 38 | 1009.0 |
| 20260504211405 | 72 | 163 | 6.0 | 14.0 | 0.00 | 0.00 | 0.00 | 38 | 1009.0 |
| 20260504210904 | 73 | 218 | 8.0 | 12.0 | 0.00 | 0.00 | 0.00 | 37 | 1009.1 |
| 20260504210404 | 73 | 134 | 9.0 | 15.0 | 0.00 | 0.00 | 0.00 | 37 | 1009.0 |
| 20260504205904 | 74 | 196 | 8.0 | 17.0 | 0.00 | 0.00 | 0.00 | 37 | 1008.9 |
| 20260504205404 | 74 | 252 | 7.0 | 14.0 | 0.00 | 0.00 | 0.00 | 37 | 1009.1 |
| 20260504204904 | 74 | 213 | 8.0 | 12.0 | 0.00 | 0.00 | 0.00 | 39 | 1009.0 |
| 20260504204404 | 74 | 194 | 8.0 | 20.0 | 0.00 | 0.00 | 0.00 | 36 | 1009.0 |
| 20260504203904 | 74 | 150 | 8.0 | 15.0 | 0.00 | 0.00 | 0.00 | 38 | 1009.0 |
| 20260504203404 | 73 | 209 | 9.0 | 19.0 | 0.00 | 0.00 | 0.00 | 37 | 1008.9 |
| 20260504202905 | 74 | 239 | 9.0 | 18.0 | 0.00 | 0.00 | 0.00 | 38 | 1009.0 |
| 20260504202404 | 73 | 225 | 7.0 | 17.0 | 0.00 | 0.00 | 0.00 | 36 | 1009.1 |
| 20260504201904 | 73 | 90 | 7.0 | 16.0 | 0.00 | 0.00 | 0.00 | 36 | 1009.1 |
| 20260504201404 | 73 | 87 | 7.0 | 14.0 | 0.00 | 0.00 | 0.00 | 38 | 1009.1 |
| 20260504200904 | 74 | 213 | 6.0 | 16.0 | 0.00 | 0.00 | 0.00 | 36 | 1009.3 |
| 20260504200404 | 73 | 201 | 7.0 | 13.0 | 0.00 | 0.00 | 0.00 | 37 | 1009.4 |
| 20260504195904 | 73 | 150 | 7.0 | 17.0 | 0.00 | 0.00 | 0.00 | 39 | 1009.5 |
| 20260504195404 | 73 | 187 | 8.0 | 14.0 | 0.00 | 0.00 | 0.00 | 38 | 1009.6 |
| 20260504194904 | 73 | 244 | 9.0 | 19.0 | 0.00 | 0.00 | 0.00 | 37 | 1009.8 |
| 20260504194404 | 73 | 201 | 8.0 | 15.0 | 0.00 | 0.00 | 0.00 | 39 | 1009.9 |
| 20260504193904 | 73 | 200 | 7.0 | 16.0 | 0.00 | 0.00 | 0.00 | 37 | 1009.9 |
| 20260504193404 | 73 | 85 | 6.0 | 14.0 | 0.00 | 0.00 | 0.00 | 36 | 1009.9 |
| 20260504192914 | 73 | 144 | 6.0 | 14.0 | 0.00 | 0.00 | 0.00 | 38 | 1010.1 |
| 20260504192404 | 72 | 211 | 7.0 | 11.0 | 0.00 | 0.00 | 0.00 | 37 | 1010.1 |
| 20260504191904 | 72 | 181 | 7.0 | 11.0 | 0.00 | 0.00 | 0.00 | 37 | 1010.4 |
| 20260504191404 | 72 | 157 | 6.0 | 12.0 | 0.00 | 0.00 | 0.00 | 37 | 1010.4 |
| 20260504190904 | 72 | 137 | 7.0 | 12.0 | 0.00 | 0.00 | 0.00 | 39 | 1010.5 |
| 20260504190404 | 72 | 212 | 7.0 | 14.0 | 0.00 | 0.00 | 0.00 | 40 | 1010.6 |
| 20260504185907 | 72 | 241 | 7.0 | 11.0 | 0.00 | 0.00 | 0.00 | 38 | 1010.8 |
| 20260504185405 | 72 | 233 | 8.0 | 12.0 | 0.00 | 0.00 | 0.00 | 39 | 1010.9 |
| 20260504184904 | 72 | 194 | 8.0 | 18.0 | 0.00 | 0.00 | 0.00 | 37 | 1010.9 |
| 20260504184404 | 72 | 234 | 8.0 | 15.0 | 0.00 | 0.00 | 0.00 | 38 | 1011.0 |
| 20260504183904 | 72 | 219 | 9.0 | 12.0 | 0.00 | 0.00 | 0.00 | 40 | 1011.2 |
| 20260504183404 | 71 | 241 | 8.0 | 20.0 | 0.00 | 0.00 | 0.00 | 39 | 1011.1 |
| 20260504182906 | 72 | 245 | 6.0 | 19.0 | 0.00 | 0.00 | 0.00 | 37 | 1011.2 |
| 20260504182405 | 72 | 223 | 5.0 | 13.0 | 0.00 | 0.00 | 0.00 | 36 | 1011.3 |
| 20260504181904 | 71 | 261 | 7.0 | 8.0 | 0.00 | 0.00 | 0.00 | 38 | 1011.4 |
| 20260504181404 | 71 | 222 | 7.0 | 19.0 | 0.00 | 0.00 | 0.00 | 37 | 1011.4 |
| 20260504180904 | 71 | 186 | 5.0 | 13.0 | 0.00 | 0.00 | 0.00 | 38 | 1011.5 |
| 20260504180404 | 71 | 146 | 4.0 | 8.0 | 0.00 | 0.00 | 0.00 | 38 | 1011.5 |
| 20260504175907 | 70 | 144 | 5.0 | 9.0 | 0.00 | 0.00 | 0.00 | 38 | 1011.6 |
| 20260504175404 | 71 | 265 | 6.0 | 11.0 | 0.00 | 0.00 | 0.00 | 42 | 1011.5 |
| 20260504174904 | 71 | 184 | 8.0 | 14.0 | 0.00 | 0.00 | 0.00 | 41 | 1011.7 |
| 20260504174405 | 71 | 223 | 7.0 | 14.0 | 0.00 | 0.00 | 0.00 | 37 | 1011.8 |
| 20260504173904 | 71 | 200 | 6.0 | 13.0 | 0.00 | 0.00 | 0.00 | 38 | 1011.7 |
| 20260504173404 | 70 | 209 | 5.0 | 10.0 | 0.00 | 0.00 | 0.00 | 38 | 1011.7 |
| 20260504172905 | 70 | 218 | 6.0 | 16.0 | 0.00 | 0.00 | 0.00 | 40 | 1011.9 |
| 20260504172404 | 69 | 211 | 7.0 | 12.0 | 0.00 | 0.00 | 0.00 | 39 | 1011.9 |
| 20260504171405 | 69 | 252 | 6.0 | 11.0 | 0.00 | 0.00 | 0.00 | 37 | 1012.1 |
| 20260504170905 | 69 | 166 | 6.0 | 11.0 | 0.00 | 0.00 | 0.00 | 39 | 1012.1 |
| 20260504170404 | 69 | 226 | 6.0 | 12.0 | 0.00 | 0.00 | 0.00 | 40 | 1012.1 |
| 20260504160405 | 67 | 224 | 6.0 | 12.0 | 0.00 | 0.00 | 0.00 | 38 | 1013.0 |
| 20260504150905 | 65 | 221 | 5.0 | 10.0 | 0.00 | 0.00 | 0.00 | 40 | 1013.8 |
| 20260504150405 | 65 | 109 | 3.0 | 8.0 | 0.00 | 0.00 | 0.00 | 41 | 1013.8 |
| 20260504140908 | 61 | 282 | 5.0 | 9.0 | 0.00 | 0.00 | 0.00 | 46 | 1013.9 |
| 20260504140405 | 61 | 202 | 3.0 | 10.0 | 0.00 | 0.00 | 0.00 | 47 | 1014.0 |
| 20260504130505 | 55 | 149 | 3.0 | 7.0 | 0.00 | 0.00 | 0.00 | 52 | 1014.4 |
| 20260504130405 | 55 | 149 | 3.0 | 7.0 | 0.00 | 0.00 | 0.00 | 52 | 1014.4 |
| 20260504110405 | 36 | 124 | 0.0 | 0.0 | 0.00 | 0.00 | 0.00 | 88 | 1014.9 |